TimeHST,TemperatureF,Dew PointF,Humidity,Sea Level PressureIn,VisibilityMPH,Wind Direction,Wind SpeedMPH,Gust SpeedMPH,PrecipitationIn,Events,Conditions,WindDirDegrees,DateUTC
12:57 AM,73.4,64.9,75,29.99,7.0,South,3.5,-,N/A,,Mostly Cloudy,170,2013-11-22 10:57:00
1:04 AM,-9999,-9999,N/A,30.00,4.0,Calm,Calm,-,N/A,,Haze,0,2013-11-22 11:04:00
1:12 AM,73.4,71.6,94,30.00,6.2,Calm,Calm,-,N/A,,Mostly Cloudy,0,2013-11-22 11:12:00
1:22 AM,-9999,-9999,N/A,-9999,-9999.0,North,-9999.0,-,N/A,,Unknown,0,2013-11-22 11:22:00
1:57 AM,73.4,72.0,95,29.98,7.0,Calm,Calm,-,N/A,,Mostly Cloudy,0,2013-11-22 11:57:00
2:57 AM,73.4,68.0,83,29.98,7.0,Calm,Calm,-,N/A,,Clear,0,2013-11-22 12:57:00
3:57 AM,73.4,63.0,70,29.98,7.0,Calm,Calm,-,N/A,,Clear,0,2013-11-22 13:57:00
4:57 AM,73.4,64.0,72,29.97,7.0,Calm,Calm,-,N/A,,Scattered Clouds,0,2013-11-22 14:57:00
5:57 AM,73.4,64.0,72,29.99,7.0,Calm,Calm,-,N/A,,Clear,0,2013-11-22 15:57:00
6:15 AM,-9999,-9999,N/A,-9999,-9999.0,North,-9999.0,-,N/A,,Unknown,0,2013-11-22 16:15:00
6:57 AM,73.4,68.0,83,30.01,7.0,Calm,Calm,-,N/A,,Clear,0,2013-11-22 16:57:00
7:57 AM,73.4,70.0,89,30.01,7.0,South,3.5,-,N/A,,Clear,170,2013-11-22 17:57:00
8:57 AM,75.2,71.1,87,30.03,7.0,Calm,Calm,-,N/A,,Clear,0,2013-11-22 18:57:00
9:57 AM,77.0,69.1,76,30.04,7.0,Variable,3.5,-,N/A,,Clear,0,2013-11-22 19:57:00
10:45 AM,-9999,-9999,N/A,-9999,-9999.0,North,-9999.0,-,N/A,,Unknown,0,2013-11-22 20:45:00
10:57 AM,81.5,70.0,68,30.02,7.0,Variable,5.8,-,N/A,,Scattered Clouds,0,2013-11-22 20:57:00
11:57 AM,81.5,70.0,68,30.00,8.0,North,9.2,-,N/A,,Scattered Clouds,10,2013-11-22 21:57:00
12:57 PM,81.5,69.1,66,29.98,8.0,North,9.2,-,N/A,,Scattered Clouds,10,2013-11-22 22:57:00
1:57 PM,81.5,68.0,63,29.96,8.0,North,8.1,-,N/A,,Scattered Clouds,10,2013-11-22 23:57:00
2:57 PM,81.5,68.0,63,29.96,8.0,North,11.5,-,N/A,,Scattered Clouds,10,2013-11-23 00:57:00
3:57 PM,81.5,68.0,63,29.96,8.0,North,11.5,-,0.00,Rain,Light Rain,10,2013-11-23 01:57:00
4:57 PM,78.8,64.0,60,29.97,10.0,North,10.4,-,0.00,,Mostly Cloudy,360,2013-11-23 02:57:00
5:57 PM,79.0,64.9,62,29.97,10.0,North,11.5,-,N/A,,Mostly Cloudy,10,2013-11-23 03:57:00
6:57 PM,79.0,64.0,60,29.99,10.0,NNE,15.0,-,N/A,,Overcast,20,2013-11-23 04:57:00
7:30 PM,-9999,-9999,N/A,-9999,-9999.0,North,-9999.0,-,N/A,,Unknown,0,2013-11-23 05:30:00
7:57 PM,79.0,64.9,62,30.00,9.0,North,10.4,-,N/A,,Mostly Cloudy,10,2013-11-23 05:57:00
8:18 PM,75.2,66.2,73,30.02,6.2,North,11.5,-,N/A,,Overcast,360,2013-11-23 06:18:00
8:29 PM,75.2,66.2,73,30.02,6.2,North,10.4,-,N/A,,Mostly Cloudy,360,2013-11-23 06:29:00
8:57 PM,75.2,66.0,73,30.01,10.0,North,10.4,-,N/A,,Mostly Cloudy,360,2013-11-23 06:57:00
9:57 PM,73.4,64.9,75,30.02,10.0,North,8.1,-,N/A,,Partly Cloudy,360,2013-11-23 07:57:00
10:57 PM,75.9,64.0,67,30.02,9.0,NNE,11.5,-,N/A,,Scattered Clouds,20,2013-11-23 08:57:00
11:57 PM,74.8,63.0,66,30.02,9.0,North,8.1,-,N/A,,Scattered Clouds,360,2013-11-23 09:57:00